Regional Weather Roundup
Issued by NWS

Home | Current Version | Previous Version | Graphics & Text | Print | Product List | Glossary On
Versions: 1 2 3 4 5 6 7 8 9 10 11 12 13 14 15 16 17 18 19 20 21 22 23 24 25 26 27 28 29 30 31 32 33 34 35 36 37 38 39 40 41 42 43 44 45 46 47 48 49 50
360
ASUS45 KTFX 230810
RWRMT
MONTANA REGIONAL WEATHER ROUNDUP
NATIONAL WEATHER SERVICE GREAT FALLS MT
200 AM MDT TUE AUG 23 2016

NOTE: "FAIR" INDICATES FEW OR NO CLOUDS BELOW 12000 FEET WITH NO
SIGNIFICANT WEATHER AND/OR OBSTRUCTIONS TO VISIBILITY.

MTZ001>007-043-230900-
WEST OF THE DIVIDE

CITY           SKY/WX    TMP DP  RH WIND       PRES   REMARKS
KALISPELL      CLOUDY    56  35  45 N7        29.97R
MISSOULA       CLEAR     50  31  48 E5        30.04R
BUTTE          CLOUDY    53  24  32 W7        30.06R
MULLAN PASS    MOCLDY    46  28  49 VRB5      30.09S
DEER LODGE       N/A     52  27  37 CALM      30.08R
EUREKA           N/A     55  36  47 CALM      29.97
HAMILTON         N/A     45  34  65 E5        30.06R
LIBBY            N/A     52  34  50 E3        29.98R
PLAINS           N/A     49  32  52 CALM      30.00S
$$

MTZ008-052>055-230900-
SOUTHWEST MONTANA

CITY           SKY/WX    TMP DP  RH WIND       PRES   REMARKS
BOZEMAN        CLOUDY    54  35  48 S3        30.00R
DILLON         PTCLDY    57  21  24 S9        30.02R
W YELLOWSTONE  CLOUDY    54   9  16 W6        30.07S
ENNIS          PTCLDY    52  16  24 E7        30.07R
THREE FORKS      N/A     59 -28   2 MISG      29.99R
TWIN BRIDGES     N/A     58  18  21 CALM      30.01R
$$

MTZ009-010-012-014-046-048-049-054-230900-
EAST SLOPES AND CENTRAL MONTANA

CITY           SKY/WX    TMP DP  RH WIND       PRES   REMARKS
CUT BANK       CLOUDY    58  31  35 W20G29    29.90R
GREAT FALLS    CLOUDY    50  28  42 SW10      29.94R
MALMSTROM AFB  MOCLDY    58  29  33 MISG      29.93R
HELENA         PTCLDY    61  26  26 NW17      29.98R
CHOTEAU          N/A     57  30  35 W10       29.95S
CONRAD           N/A     49  38  65 SW6       29.93S
$$

MTZ011-013-016-021-045-047-050-051-230900-
NORTH CENTRAL MONTANA

CITY           SKY/WX    TMP DP  RH WIND       PRES   REMARKS
HAVRE          MOCLDY    56  31  38 SW8       29.84R
LEWISTOWN      CLOUDY    58  32  37 W9        29.93R
N BAR RANCH      N/A     52  27  37 W8        29.95S
CHINOOK          N/A     57  32  38 CALM      29.83S
$$

MTZ017>020-022>027-061-062-230900-
NORTHEAST MONTANA

CITY           SKY/WX    TMP DP  RH WIND       PRES   REMARKS
GLASGOW        CLOUDY    60  33  36 W12       29.76F
JORDAN           N/A     66  28  24 NW9       29.81R
SIDNEY         PTCLDY    65  34  31 NW14      29.66S
WOLF POINT     CLOUDY    68  40  35 NW9       29.74R
POPLAR           N/A     66  45  45 NW13      29.73R
SCOBEY           N/A     61  44  53 CALM      29.78R
$$

MTZ028>42-056>058-230900-
SOUTHCENTRAL AND SOUTHEAST MONTANA

CITY           SKY/WX    TMP DP  RH WIND       PRES   REMARKS
BAKER          PTCLDY    63  39  41 W10       29.74R
BILLINGS       CLEAR     60  29  30 NW12      29.90R
LIVINGSTON     CLOUDY    59  24  26 W9        29.98R
MILES CITY     MOCLDY    70  26  19 N8        29.77R
EKALAKA          N/A     64  38  38 CALM      29.77
FORSYTH          N/A     66  28  24 NW9       29.81R
LAUREL           N/A     57  31  37 W5        29.91R
ROUNDUP          N/A     59  25  27 NW3       29.82R
$$

REGIONAL REPORTS...DAKOTAS

CITY           SKY/WX    TMP DP  RH WIND       PRES   REMARKS
WILLISTON      CLOUDY    59  41  51 NE3       29.65R
MINOT          FOG       65  65 100 NW6       29.59S VSB 1
DICKINSON      CLOUDY    57  55  93 W12       29.64R
CROSBY           N/A     61  45  55 NW14      29.69R
BISMARCK       CLEAR     65  62  90 CALM      29.57F
GRAND FORKS    LGT RAIN  73  67  81 S22G28    29.63F
FARGO          PTCLDY    72  64  76 S17G25    29.68R
BUFFALO SD       N/A     67  48  50 NW16      29.62R
RAPID CITY     CLEAR     61  47  59 SE3       29.69F
$$

REGIONAL REPORTS...WYOMING/IDAHO/WASHINGTON

CITY           SKY/WX    TMP DP  RH WIND       PRES   REMARKS
GILLETTE       CLEAR     64  38  38 W9        29.79R
SHERIDAN       CLEAR     67  25  20 W17       29.89R
BUFFALO WY     CLEAR     68  24  19 NW21G40   29.91R
CODY           CLEAR     64  27  24 NW6       29.97R
YELLOWSTONE LA   N/A     39  19  44 CALM      30.14S
IDAHO FALLS    CLOUDY    56  26  31 SW13      30.01R
SALMON         CLEAR     54  28  37 CALM      30.03R
BOISE          CLEAR     62  30  29 W8        29.98R
SPOKANE        MOCLDY    58  34  40 W5        30.03R
$$

REGIONAL REPORTS...ALBERTA

CITY           SKY/WX    TMP DP  RH WIND       PRES   REMARKS
EDMONTON       CLOUDY    55  55 100 N10       29.75R
CALGARY        LGT RAIN  50  43  76 NW25G43   29.85R
LETHBRIDGE     CLOUDY    59  39  47 NW24G35   29.87R
MEDICINE HAT   CLOUDY    55  45  67 W24G35    29.77R
WATERTON GATE    N/A     55  32  41 W15G24      N/A
MILK RIVER       N/A     54  41  62 N12         N/A
$$

REGIONAL REPORTS...SASKATCHEWAN

CITY           SKY/WX    TMP DP  RH WIND       PRES   REMARKS
SWIFT CURRENT  CLEAR     48  41  76 SW12      29.74S
REGINA         MOCLDY    52  45  76 VRB2      29.70R
SASKATOON      PTCLDY    52  48  87 W9        29.66R
CYPRESS HILLS    N/A     46  39  76 W13G26      N/A
VAL MARIE        N/A     52  32  46 W7          N/A
ROCKGLEN         N/A     59  36  41 W10         N/A
ASSINIBOIA       N/A     55  54  94 W9          N/A
$$




USA.gov is the U.S. government's official web portal to all federal, state and local government web resources and services.